www.pogodaiklimat.ru

Погода и климат >> Архив погоды >> Антарктида >> Neumayer Station


ПОГОДА в Neumayer Station

  • Прогноз погоды в Neumayer Station
  • Монитор погоды в Neumayer Station
  • Климат города

АРХИВ ПОГОДЫ в Neumayer Station

Время (UTC), дата Ветер
(напр.,м/с)
 
Видим.   Явления Облачность Т
(С)
Тd
(С)
f
(%)
Тe
(С)
Тes
(С)
Комфортность P
(гПа)
Po
(гПа)
Тmin
(С)
Tmax
(С)
R
(мм)
R24
(мм)
S
(см)
03 12.11 ЮВ 7 н/о н/о -15.2 -20.1 66 -25 -25 974.6 968.8
06 12.11 ЮВ 8 50 км 9/9 1000 м
[Sc]
-12.4 -18.0 63 -23 -23 976.2 970.4
09 12.11 ЮВ 7 50 км 4/4 600 м
[Sc]
-12.8 -18.1 64 -23 -22 977.7 972.0
12 12.11 В 9 50 км позёмок 9/9 1000 м
[Sc]
-11.5 -16.5 66 -22 -22 978.4 972.7 -18.0 -11.5
15 12.11 В 9 20 км позёмок 6/6 1000 м
[Sc]
-10.6 -15.2 69 -21 -21 979.0 973.3
18 12.11 В 6 50 км ясно -11.5 -16.2 68 -20 -19 979.8 974.1
21 12.11 ЮВ 5 50 км ясно -16.9 -20.4 74 -26 -26 980.7 974.9
00 13.11 ЮВ 5 50 км ясно -20.3 -24.4 70 -31 -31 опасность
обморожения
981.0 975.1 -21.5 -10.6
03 13.11 Ю 3 н/о н/о -24.2 -27.9 71 -32 -32 опасность
обморожения
981.3 975.3
06 13.11 Ю 2 50 км 1/0
[Cs]
-23.2 -27.3 69 -30 -28 981.6 975.6
09 13.11 ЮВ 4 50 км 1/1 300 м
[Sc]
-17.2 -21.4 70 -25 -21 981.6 975.8
12 13.11 В 6 50 км 1/1 300 м
[Sc]
-13.0 -17.5 69 -22 -18 981.7 975.9 -24.6 -12.9
15 13.11 В 4 50 км 1/1 300 м
[Sc]
-11.9 -15.5 75 -19 -15 981.4 975.6
18 13.11 В 4 50 км 1/0
[Cs]
-13.0 -16.4 76 -20 -18 980.5 974.8
21 13.11 В 7 50 км 1/0
[Cs]
-15.8 -20.2 69 -26 -26 979.8 974.0
00 14.11 В 6 50 км ясно -18.4 -23.6 64 -29 -29 979.5 973.6 -18.4 -11.6
03 14.11 ЮВ 7 н/о н/о -20.1 -25.0 65 -32 -32 опасность
обморожения
978.6 972.7
06 14.11 ЮВ 7 50 км 1/0
[Ci fib]
-17.7 -23.3 62 -29 -28 978.0 972.2
09 14.11 В 11 50 км позёмок 9/0
[Cs]
-14.2 -19.8 62 -26 -26 977.2 971.5
12 14.11 В 9 20 км позёмок 5/0
[Cs]
-12.3 -17.6 65 -23 -22 977.3 971.5 -21.0 -12.3
15 14.11 ЮВ 5 50 км 9/0
[Cs]
-10.6 -17.0 59 -18 -15 976.6 971.0
18 14.11 В 4 50 км 9/1 300 м
[Sc Cs]
-11.8 -16.7 67 -19 -18 976.7 971.0
21 14.11 Ю 4 50 км 3/1 300 м
[Sc Cs]
-15.5 -20.1 68 -23 -23 977.6 971.8
00 15.11 Ю 7 50 км 3/1 300 м
[Sc Ci fib]
-16.8 -22.7 60 -27 -27 978.5 972.7 -18.0 -10.1
03 15.11 Ю 6 н/о н/о -21.8 -26.0 69 -33 -33 опасность
обморожения
979.5 973.6
06 15.11 Ю 5 50 км 1/0
[Cs]
-21.2 -25.7 67 -32 -31 опасность
обморожения
981.0 975.0
09 15.11 Ю 3 50 км 1/0
[Ci fib]
-17.9 -22.2 69 -25 -21 982.0 976.1
12 15.11 Ю 4 50 км ясно -12.8 -17.3 69 -20 -13 983.0 977.2 -22.5 -12.8
15 15.11 Ю 3 50 км ясно -10.9 -14.8 73 -17 -11 983.7 978.0
18 15.11 Ю 3 50 км ясно -11.6 -14.7 78 -18 -15 985.0 979.3
21 15.11 ЮЗ 4 50 км ясно -15.6 -18.1 81 -23 -23 986.5 980.6
00 16.11 Ю 6 50 км ясно -19.8 -23.8 70 -31 -31 опасность
обморожения
987.5 981.5 -20.1 -10.3
03 16.11 Ю 3 н/о н/о -22.5 -26.6 69 -31 -31 опасность
обморожения
988.4 982.4
06 16.11 Ю 3 50 км 1/1 1000 м
[Sc]
-21.9 -26.2 68 -29 -28 989.2 983.2
09 16.11 ЮВ 3 50 км осадки на расстоянии 9/9 1000 м
[Sc]
-15.2 -19.8 68 -21 -21 990.1 984.3
12 16.11 В 3 50 км 5/4 600 м
[Sc Cs]
-12.4 -16.4 72 -18 -13 990.5 984.7 -22.9 -12.4
15 16.11 З 2 50 км 8/6 600 м
[Sc Cs]
-10.0 -14.5 70 -14 -11 991.2 985.4
18 16.11 З 1 50 км 10/0
[Cs]
-10.5 -14.0 75 -13 -10 991.3 985.5
21 16.11 З 1 20 км 10/0
[Cs]
-13.1 -15.6 81 -15 -15 991.3 985.5
00 17.11 В 2 50 км 10/10 600 м
[St]
-12.7 -15.5 80 -17 -17 991.1 985.3 -13.6 -8.9
03 17.11 В 4 н/о н/о -11.7 -14.7 78 -18 -18 990.0 984.2
06 17.11 В 5 50 км 10/1 600 м
[Sc Ac As]
-11.1 -14.6 75 -19 -18 988.3 982.5
09 17.11 В 6 50 км 10/9 600 м
[Sc Ac As]
-9.1 -12.5 76 -17 -17 986.3 980.6
12 17.11 В 8 50 км позёмок 10/9 600 м
[Sc Ac As]
-6.2 -8.9 81 -15 -15 983.7 978.1 -13.1 -6.1
15 17.11 В 14 200 м метель 10/10 300 м
[St]
-6.6 -8.8 84 -18 -18 980.0 974.4
18 17.11 В 16 200 м метель 10/1 200 м
[St Cs]
-6.9 -8.9 86 -19 -19 976.3 970.7
21 17.11 В 19 50 м сильная метель ?/? -7.3 -9.1 87 -20 -20 973.0 967.4
00 18.11 В 21 50 м сильная метель ?/? -8.4 -10.4 85 -22 -22 969.5 963.9 -8.4 -5.6
03 18.11 В 23 н/о н/о -8.9 -11.0 85 -23 -23 965.1 959.5
06 18.11 В 22 <50 м сильная метель ?/? -8.9 -11.2 83 -23 -23 963.3 957.7
09 18.11 В 24 <50 м сильная метель ?/? -7.8 -9.9 85 -22 -22 962.4 956.9
12 18.11 В 25 50 м слабый снег {метель} туман ?/? -6.1 -8.0 86 -20 -20 961.1 955.6 -9.1 -6.1
15 18.11 В 23 50 м слабый снег {метель} туман ?/? -5.6 -7.4 87 -19 -19 960.9 955.5
18 18.11 В 19 50 м слабый снег {метель} туман ?/? -5.4 -7.1 88 -18 -18 961.7 956.3
21 18.11 В 15 200 м метель {снег} 10/10 300 м
[St]
-5.8 -7.4 88 -17 -17 963.2 957.7
00 19.11 В 16 500 м метель {снег} 10/10 200 м
[St]
-5.9 -7.5 88 -18 -18 963.7 958.2 -6.0 -5.1

 

Местоположение метеостанции Neumayer Station (Антарктида): широта -70.66 долгота -8.25 высота над уровнем моря 50 м.

В архиве по умолчанию представлена погода в Neumayer Station за последнюю неделю. Архивные данные за месяц целиком и за предыдущие месяцы, начиная с января 2011 года, Вы можете получить, выбрав интересующий диапазон дат из раскрывающегося списка и нажав кнопку "Ввод!".


*Определитесь, кто Вы:
робот инопланетянин человек

Внимание! Время в таблицах - всемирное. Для получения местного времени необходимо прибавить поправку, которая в Neumayer Station равна 0 ч.

Смотрите также архив погоды в соседних городах и на ближайших метеорологических станциях:

Погода в Soerasen (Антарктида) (102 км)
Погода в SANAE (Антарктида) (227 км)
Погода в Nordenskiold Base (Антарктида) (320 км)
Погода в Troll (Антарктида) (406 км)
Погода в Kohnen Ep9 (Антарктида) (552 км)
Погода в Maitri (Антарктида) (732 км)
Погода в Novolazarevskaja (Антарктида) (734 км)
Погода в Halley (Антарктида) (797 км)
Погода в Base Belgrano Ii (Антарктида) (1110 км)
Погода в Limbert Aws (Антарктида) (1666 км)

Пояснения к столбцам:

Ветер - указаны скорость ветра в м/с - средняя за 10 мин, порывы в срок и между сроками (в фигурных скобках) и направление, откуда дует ветер: С - северный, СВ - северо-восточный, В - восточный, ЮВ - юго-восточный, Ю - южный, ЮЗ - юго-западный, З - западный, СЗ - северо-западный.
Видимость - горизонтальная дальность видимости в метрах или километрах. При видимости от 1 до 10 км при отсутствии осадков обычно наблюдается дымка, при ухудшении видимости до 1 км и менее - туман. В сухую погоду видимость может ухудшаться дымом, пылью или мглою.
Явления - указаны атмосферные явления, наблюдавшиеся в срок или в последний час перед сроком; фигурными скобками обозначены явления, наблюдавшиеся между сроками (за 1-3 часа до срока); квадратными скобками обозначены град или гололедные отложения с указанием их диаметра в мм.
Облачность - указаны через наклонную черту общая и нижняя облачность в баллах и высота нижней границы облаков в метрах; квадратными скобками обозначены формы облаков: Ci - перистые, Cs - перисто-слоистые, Cc - перисто-кучевые, Ac - высококучевые, As - высокослоистые, Sc - слоисто-кучевые, Ns - слоисто-дождевые, Cu - кучевые, Cb - кучево-дождевые. Подробнее классификацию облаков см. в Атласе облаков (PDF).
T - Температура воздуха - температура, измеренная на высоте 2 м над землей.
Td - Температура точки росы - температура, при понижении до которой содержащийся в воздухе водяной пар достигнет насыщения.
f - Относительная влажность воздуха - влажноcть воздуха, измеренная на высоте 2 м над землей.
Te - Эффективная температура - температура, которую ощущает одетый по сезону человек в тени. Характеристика душности погоды. При расчете учитывается влияние влажности воздуха и скорости ветра на теплоощущения человека.
Tes - Эффективная температура на солнце - температура, которую ощущает человек, с поправкой на солнечный нагрев. Характеристика знойности погоды. Зависит от высоты солнца над горизонтом, облачности и скорости ветра. Ночью, в пасмурную погоду, а также при ветре 12 м/с и более поправка равна нулю.
P - Атмосферное давление - приведенное к уровню моря атмосферное давление.
Po - Атмосферное давление - измеренное на уровне метеостанции атмосферное давление.
Tmin - Минимальная температура - минимум температуры воздуха на высоте 2 м над землей.
Tmax - Максимальная температура - максимум температуры воздуха на высоте 2 м над землей.
R - Количество осадков - Количество выпавших осадков за период времени, мм. При наведении курсора мыши на число - период времени, за который выпало указанное количество осадков.
R24 - Количество осадков - Количество выпавших осадков за 24 часа, мм.
S - Снежный покров - Высота снежного покрова, см. При наведении курсора мыши на число - состояние снежного покрова и степень покрытия местности в баллах.